Temperature
21 21 20 20 20 20 22 24 25 25 25 25 25 24 23 22 21 20 20 21 21 21 20 20 20 20 20 20 19 19 19 19 19 19 19 19 19 19 19 19 19 19 19 19 19 19 19 19 18
21 21 21 20 20 21 23 24 25 25 25 25 25 24 23 22 21 21 20 20 21 21 20 20 20 20 20 20 20 19 19 19 19 19 19 19 19 19 19 19 19 19 19 19 19 19 19 19 18
21 21 20 20 21 22 24 25 25 26 26 25 24 24 23 22 21 21 21 21 21 21 20 20 20 20 20 20 20 20 19 19 19 19 19 19 19 19 19 19 19 19 19 19 19 18 18 18 18
21 21 21 20 23 24 25 25 26 26 25 25 24 23 23 22 22 21 21 21 21 21 20 20 20 20 20 20 20 20 19 19 19 19 19 19 19 19 19 19 19 19 19 19 19 18 18 18 18
22 21 21 22 24 25 26 26 26 25 25 24 23 22 22 22 22 22 21 21 21 21 20 20 20 20 20 20 20 19 19 19 19 19 19 19 19 19 19 19 19 19 19 19 19 18 18 18 18
22 21 21 23 25 26 26 27 26 25 24 24 23 22 22 22 22 21 21 21 21 21 20 20 20 20 20 20 20 20 19 19 19 19 19 19 19 19 19 19 19 19 19 19 19 18 18 18 18
22 21 22 24 25 26 27 27 26 25 25 24 24 22 22 22 22 22 21 21 21 21 20 20 20 20 20 20 20 20 19 19 19 19 19 19 19 19 19 19 19 19 18 18 18 18 18 18 18
23 21 23 24 25 26 27 27 26 26 25 25 24 22 22 22 22 22 21 21 21 20 20 20 20 20 20 20 20 19 19 19 19 19 19 19 19 19 19 19 19 18 18 18 18 18 18 18 18
24 22 23 25 25 26 27 27 26 26 26 25 24 24 23 22 22 22 21 21 20 20 20 20 20 20 20 19 19 19 19 19 19 19 19 19 19 19 19 19 19 18 18 18 18 18 18 18 18
24 22 25 27 26 26 27 27 26 26 25 24 24 23 23 23 22 22 21 21 20 20 20 20 20 20 19 19 19 19 19 19 19 19 19 19 19 19 19 19 19 18 18 18 18 18 18 18 18
25 25 26 27 28 27 27 27 27 25 24 24 23 23 23 22 22 22 21 21 21 20 20 20 20 20 19 19 19 19 19 19 19 19 19 19 19 19 19 19 19 19 18 18 18 18 18 18 18
26 27 28 28 28 28 27 27 27 26 25 25 24 24 23 22 22 22 21 21 21 20 20 20 20 20 19 19 19 19 19 19 19 19 19 19 19 19 19 19 19 19 18 18 18 18 18 18 18
27 27 28 28 28 28 28 27 26 26 25 25 24 24 23 22 22 22 22 21 21 20 20 20 20 20 20 19 19 19 19 19 19 19 19 19 19 19 19 19 19 18 18 18 18 18 18 18 18
27 28 28 28 28 28 27 26 26 25 25 25 24 23 23 23 22 22 21 21 21 21 20 20 20 20 20 19 19 19 19 19 19 19 19 19 19 19 19 19 19 18 18 18 18 18 18 18 18
28 27 27 28 28 28 27 26 25 25 25 24 24 23 23 23 23 22 22 22 21 21 20 20 20 20 19 19 19 19 19 19 19 19 19 19 19 19 19 19 19 18 18 18 18 18 19 18 18
27 26 25 27 28 28 26 24 25 25 25 24 24 23 23 23 23 22 22 22 21 21 20 20 20 20 19 19 19 19 19 19 19 19 19 19 19 19 19 19 19 19 19 19 19 19 19 18 18
25 25 26 27 28 27 26 25 25 26 25 24 24 23 23 23 22 22 22 22 21 21 21 20 20 20 19 19 19 19 19 19 19 19 19 19 19 19 19 19 19 19 18 19 19 19 19 18 18
25 25 26 26 27 27 26 25 25 26 25 25 24 23 23 23 22 22 22 22 21 21 21 20 20 20 19 19 19 19 19 19 19 19 19 18 18 18 18 18 18 18 19 19 18 19 19 18 18
26 26 26 27 28 26 25 25 25 25 25 24 24 23 23 23 23 22 22 22 21 21 21 20 20 20 19 19 19 19 19 19 18 18 18 18 18 18 19 18 18 18 18 18 18 18 18 18 18
27 26 26 27 28 27 25 25 25 25 25 24 24 23 23 23 23 22 22 22 21 21 20 20 20 20 19 19 19 19 19 18 18 18 18 18 18 18 18 18 18 18 18 18 18 18 18 18 18
27 26 26 26 27 26 25 24 24 25 25 25 24 24 24 23 23 22 22 22 21 21 20 20 20 20 19 19 19 19 19 18 18 18 18 18 18 18 18 18 18 18 18 18 18 18 18 18 17
27 28 28 27 25 24 25 23 23 24 24 24 24 24 23 23 23 23 22 22 21 21 21 20 20 20 20 19 19 19 19 18 18 18 18 18 18 18 18 18 18 18 18 18 17 17 17 17 17
28 29 28 27 24 23 24 23 22 23 23 23 23 23 23 23 23 23 23 22 22 21 21 20 20 20 20 19 19 19 19 19 18 18 18 18 18 18 18 18 18 18 18 17 17 17 17 17 17
29 27 25 23 22 23 23 23 22 22 23 23 23 23 23 23 23 23 22 22 22 21 21 21 20 20 20 19 19 19 19 19 18 18 18 18 18 18 18 18 18 17 17 17 17 17 17 17 17
27 24 23 23 22 22 23 23 22 23 24 24 23 23 23 23 23 22 22 22 21 21 21 21 20 20 20 19 19 19 19 19 19 18 18 18 18 18 18 17 17 17 17 17 17 17 17 17 17
27 24 23 23 22 22 23 22 23 24 24 24 24 23 23 23 23 22 22 22 21 21 21 21 20 20 20 20 19 19 19 19 18 18 18 18 18 18 17 17 17 17 17 17 17 17 17 17 16
27 25 23 22 22 22 22 22 23 24 23 23 23 23 23 22 22 22 22 22 21 21 21 20 20 20 20 19 19 19 19 18 18 18 18 18 17 17 17 17 17 17 17 17 17 16 16 16 16
27 25 22 22 22 22 23 22 21 22 22 22 22 22 22 22 22 22 22 21 21 21 20 20 20 20 19 19 19 19 18 18 18 18 18 17 17 17 17 17 17 17 16 16 16 16 16 16 16
27 25 22 20 21 21 22 22 24 22 22 22 22 22 22 22 22 22 22 21 21 21 20 20 20 20 19 19 19 19 18 18 18 18 17 17 17 17 17 17 16 16 16 16 16 16 16 16 15
27 25 22 22 21 20 20 21 24 22 22 22 22 22 22 22 22 22 21 21 21 20 20 20 20 19 19 19 19 19 18 18 18 17 17 17 17 17 17 17 16 16 16 16 16 15 15 15 15
Wind_Speed
8 7 2 1 2 3 3 3 5 7 6 8 10 10 9 7 5 5 2 7 9 8 7 9 10 10 10 10 10 10 10 10 11 11 10 10 10 9 9 9 8 8 9 9 9 9 9 9 9
6 4 1 1 3 3 2 3 7 8 9 9 10 11 9 7 6 8 4 8 10 8 8 9 11 11 10 11 10 10 10 9 10 11 10 9 9 9 9 8 8 8 8 9 9 8 7 8 9
5 3 1 2 1 3 3 4 7 10 10 8 6 7 6 5 6 6 7 11 9 7 8 10 12 11 10 11 10 10 10 9 11 11 10 10 9 9 9 8 7 7 8 8 7 7 6 6 7
2 1 1 2 1 2 4 5 8 10 9 8 8 7 4 4 5 8 12 12 10 7 8 10 12 11 11 10 10 10 10 10 11 11 10 9 9 9 8 7 7 7 7 6 6 6 5 5 6
1 1 2 1 1 2 4 6 6 9 6 8 10 7 4 3 10 13 12 11 10 7 7 10 12 11 11 10 10 10 10 10 10 10 9 8 8 8 7 6 6 6 6 5 5 5 5 5 6
1 2 2 1 2 2 4 7 10 11 10 9 9 7 3 5 10 10 11 10 10 9 7 9 10 11 10 10 9 9 9 9 9 9 8 8 8 8 7 6 6 6 5 5 4 4 4 5 6
1 1 1 1 3 5 6 7 8 9 9 6 7 6 4 5 8 9 10 9 8 7 6 5 7 8 8 8 8 9 9 8 8 8 7 7 6 7 6 5 5 5 4 4 4 4 4 5 6
3 1 1 1 5 5 5 6 7 9 8 8 6 7 5 6 8 10 9 8 8 6 5 4 5 5 5 6 7 7 8 8 7 7 6 5 5 5 4 4 4 4 4 3 3 4 5 5 5
2 2 1 3 5 4 7 8 5 6 9 6 5 6 8 11 11 10 8 7 6 6 4 4 4 4 4 5 6 6 6 6 6 5 5 3 2 2 3 3 3 3 3 3 3 4 5 4 5
3 1 2 2 5 6 6 8 6 6 9 7 8 9 10 10 10 10 9 8 6 6 5 4 4 4 4 4 4 3 4 3 3 3 2 2 2 3 3 3 3 2 2 3 3 3 4 4 3
3 3 1 2 5 6 6 6 5 9 7 9 12 12 11 10 9 9 8 8 7 6 5 4 3 3 3 2 3 3 2 2 2 2 2 2 2 1 1 1 2 2 2 2 2 3 3 3 3
2 2 2 2 5 6 6 6 6 7 7 12 14 14 11 10 9 9 8 7 7 6 5 4 3 3 3 3 2 3 2 2 2 2 3 2 1 1 1 1 1 1 1 1 2 1 2 2 3
2 1 1 2 4 5 7 7 7 7 11 13 14 13 11 10 8 7 8 8 7 6 5 4 4 4 3 3 2 3 2 2 2 2 3 3 2 1 1 0 0 1 1 1 0 1 1 1 2
2 2 1 1 3 5 9 7 7 7 12 13 13 11 10 10 10 8 8 8 7 6 5 4 4 4 4 3 3 3 2 2 2 2 2 3 2 2 1 0 0 0 1 1 0 1 1 1 0
2 2 3 0 3 5 8 4 5 10 12 12 12 11 11 10 10 10 9 9 8 7 5 5 4 3 4 3 3 3 2 3 2 1 1 2 2 2 2 1 1 0 1 1 1 1 1 1 0
3 3 1 3 3 4 8 4 6 10 11 11 11 11 10 9 9 9 9 8 8 7 6 5 5 3 3 3 3 2 2 3 2 1 1 2 2 2 2 1 0 0 0 1 1 1 1 1 1
3 1 2 4 3 3 5 4 7 9 10 10 10 10 10 8 8 8 9 9 8 8 6 5 4 3 3 3 3 3 2 2 1 1 1 1 2 2 2 1 0 0 1 1 1 1 1 1 1
4 3 3 4 3 3 4 3 5 7 9 10 10 9 9 9 9 8 8 8 8 8 7 5 4 4 3 3 3 2 2 1 1 1 1 2 1 2 1 1 1 1 2 2 2 1 1 1 1
4 3 4 4 4 2 3 5 6 6 7 8 9 9 9 9 8 9 9 9 8 7 7 6 5 3 3 2 2 2 1 0 1 1 1 1 1 2 2 2 2 2 2 1 1 1 2 2 1
3 2 3 3 2 2 3 3 5 6 9 11 12 10 10 8 7 8 8 8 8 7 7 6 5 4 3 2 2 2 2 1 1 0 1 1 1 1 2 2 1 1 2 2 2 2 1 1 2
4 4 4 2 2 3 3 2 2 3 4 7 8 8 9 11 12 10 8 7 7 7 7 7 5 4 3 2 2 2 2 2 2 1 1 1 1 1 1 1 1 1 1 1 1 1 2 1 2
5 6 4 2 2 2 2 1 4 3 2 4 6 6 6 8 9 9 9 8 8 8 7 6 6 5 3 3 3 3 2 1 1 1 0 1 1 2 2 1 1 1 1 1 1 1 1 1 1
4 3 1 1 2 1 2 2 5 0 2 4 5 7 7 8 9 9 9 9 8 8 7 6 5 5 4 4 4 4 2 1 0 0 1 1 2 1 2 2 2 2 1 1 1 1 1 1 1
1 5 6 5 5 2 3 3 5 3 6 6 6 7 8 8 8 7 7 7 7 6 6 6 5 4 3 4 4 4 3 2 1 1 0 0 1 1 2 1 1 1 1 1 1 1 1 1 1
3 5 4 6 4 4 2 2 5 5 5 7 7 7 7 7 7 7 7 7 7 7 7 6 6 4 4 3 3 3 4 3 3 2 2 1 0 0 1 1 1 1 1 1 1 2 2 2 1
2 8 6 3 3 4 3 1 4 2 3 4 5 6 6 6 6 7 7 7 8 8 7 7 7 5 4 4 3 3 3 2 2 3 2 2 2 1 1 1 1 1 1 1 1 2 2 2 2
2 2 7 6 1 1 2 2 4 3 3 4 5 6 6 6 6 6 6 6 6 7 7 7 7 6 5 5 5 3 3 3 2 2 2 1 1 1 1 1 1 1 1 1 1 1 1 1 1
5 5 5 5 3 1 3 3 4 3 4 4 4 6 6 6 6 6 5 5 5 5 5 5 6 6 5 5 5 4 3 3 2 2 2 1 1 1 2 1 1 1 1 1 1 0 1 1 1
1 2 5 4 4 5 2 6 5 9 7 7 6 7 7 7 7 6 5 5 5 5 4 4 4 3 3 4 4 3 3 3 3 2 2 2 1 1 1 1 1 1 0 0 0 0 1 1 1
4 4 6 4 2 3 3 5 2 6 6 8 7 7 7 7 6 6 6 6 5 5 5 4 3 3 2 3 3 3 2 2 2 2 1 2 2 1 2 1 1 1 0 0 0 1 1 0 1
Wind_Direction
163 160 166 205 42 44 59 69 80 67 64 65 73 81 81 69 93 127 159 136 139 143 145 136 127 122 121 121 118 118 118 121 126 126 125 123 123 126 129 132 137 146 152 155 156 163 165 166 167
160 165 197 25 63 61 43 89 81 91 113 102 78 78 75 71 89 116 125 144 144 140 143 136 129 123 121 121 118 116 117 121 130 130 127 123 122 122 121 124 130 137 143 147 149 154 163 171 176
168 191 197 49 81 134 134 120 102 96 100 93 81 59 67 91 107 133 150 144 136 133 140 139 131 126 126 124 120 117 113 112 125 126 125 123 123 124 123 123 125 131 138 143 150 155 165 176 186
167 166 37 55 130 160 146 145 120 104 81 74 91 75 61 83 119 138 140 140 135 138 143 144 135 128 126 127 123 122 119 117 118 122 125 126 125 125 127 129 132 134 136 140 148 160 169 180 186
145 94 43 34 136 127 138 135 113 107 94 89 93 99 79 65 112 131 139 140 138 141 144 147 141 135 130 129 127 124 121 119 119 121 126 130 134 137 140 141 140 141 142 146 156 169 178 181 181
55 65 66 108 123 108 112 117 103 102 109 109 105 108 101 110 122 134 140 140 140 143 145 149 147 142 140 136 136 132 130 128 127 127 128 134 143 146 148 149 147 150 150 150 164 176 188 192 193
116 78 252 179 108 100 116 117 114 118 118 118 122 102 111 127 136 131 128 126 129 137 140 150 154 152 149 146 143 139 137 137 136 134 134 135 140 150 155 159 155 158 160 167 179 187 201 206 208
163 114 317 137 110 110 116 105 115 121 116 124 120 122 148 159 129 117 112 115 122 131 141 148 157 155 157 159 154 147 145 145 143 140 142 144 142 144 148 162 171 176 182 191 200 203 213 214 213
145 69 237 171 133 133 123 109 100 96 110 107 102 128 144 138 118 111 107 101 111 123 134 144 148 156 172 175 162 155 148 150 147 147 151 150 155 169 178 176 176 183 193 207 212 216 221 224 226
141 152 235 164 146 143 135 124 127 104 100 98 102 107 122 122 121 122 122 124 126 131 142 149 143 155 156 155 151 160 149 144 143 144 155 169 174 198 197 196 196 214 228 234 229 236 246 251 242
179 191 201 118 135 133 127 122 121 120 120 143 142 139 135 127 126 129 132 139 144 145 141 140 135 142 147 143 141 145 147 145 151 160 166 165 169 197 204 199 248 264 272 270 264 261 262 237 221
181 196 174 138 129 124 128 126 114 128 153 149 144 144 140 139 141 143 143 143 136 135 143 144 138 128 136 134 144 139 137 140 151 176 169 153 145 145 141 170 219 244 259 259 252 251 245 230 229
148 157 220 168 130 132 117 113 111 121 135 138 138 141 141 144 148 146 140 137 132 131 138 145 134 131 128 115 132 129 138 149 155 148 161 157 145 138 111 118 157 254 255 251 274 260 249 240 235
225 243 259 128 119 112 114 112 106 142 142 140 142 143 148 151 148 137 131 130 130 132 136 137 129 127 118 115 113 110 121 123 110 119 138 142 140 129 120 111 84 310 277 264 246 274 291 288 250
324 6 352 93 129 129 110 90 142 158 149 147 148 149 150 153 150 146 149 146 141 142 138 135 130 115 113 112 113 115 119 110 110 113 121 119 121 122 122 114 98 302 289 294 335 350 13 20 355
6 37 352 269 172 155 119 164 193 162 152 156 155 154 155 157 156 155 152 147 142 138 141 141 134 125 122 118 112 117 112 109 121 114 102 101 110 115 114 98 57 272 69 62 47 22 17 10 5
4 329 283 279 214 160 130 178 199 173 157 158 160 159 159 157 157 159 154 151 148 145 144 140 131 132 132 118 110 108 101 100 116 120 109 108 113 114 119 92 348 34 70 60 43 43 48 24 349
250 248 257 253 246 129 129 166 185 178 166 162 164 162 162 162 166 162 155 154 151 150 145 140 132 133 129 110 95 85 75 57 81 111 101 103 100 102 100 75 31 49 64 51 44 40 23 34 315
224 228 241 250 237 142 162 168 187 178 163 163 161 165 166 169 163 152 152 156 153 152 147 146 137 138 130 126 138 143 161 269 9 53 93 101 104 99 98 67 48 49 67 54 43 53 31 17 28
256 247 266 286 256 148 156 186 193 183 180 178 174 173 171 164 157 160 161 158 157 159 158 154 150 151 151 159 167 162 156 173 182 45 79 99 93 81 92 80 61 56 64 43 42 58 58 15 44
273 220 224 225 4 40 84 6 264 214 187 182 176 170 169 170 170 168 165 162 159 166 165 159 156 150 148 123 91 77 60 42 34 34 34 36 91 83 80 89 98 68 90 71 39 49 85 41 349
262 242 210 168 72 311 103 239 272 218 177 172 177 168 164 166 163 166 165 163 166 167 161 154 152 146 139 124 118 123 126 147 223 223 135 27 46 60 61 70 87 79 74 66 20 59 62 105 347
239 247 214 164 129 5 10 115 285 261 201 205 185 174 166 166 164 165 166 165 161 158 158 155 148 150 153 151 151 143 140 167 190 74 65 31 12 25 49 66 67 65 59 58 36 36 33 88 137
156 30 26 42 71 4 261 150 265 228 211 203 191 173 171 166 161 163 162 152 150 154 153 152 148 152 155 155 158 157 159 155 139 139 141 323 330 357 13 62 64 68 61 45 28 39 48 48 69
47 73 24 4 11 259 262 142 252 245 206 185 172 169 164 162 156 154 157 158 162 161 162 159 157 163 166 162 166 176 173 164 175 187 195 200 216 296 309 69 79 88 63 53 52 55 40 37 54
226 135 155 197 230 281 353 224 273 268 141 142 136 145 143 140 146 147 153 163 170 167 164 163 166 174 177 176 184 184 169 168 193 198 191 194 202 204 181 128 97 75 64 50 55 52 35 42 38
162 187 170 141 128 38 305 298 319 40 83 105 105 111 125 139 148 150 148 152 158 159 166 170 172 178 183 187 188 187 183 179 190 205 183 186 190 162 131 127 112 72 64 49 71 55 13 32 31
145 148 87 104 140 266 294 260 225 193 156 145 120 127 136 136 136 141 142 146 151 155 161 163 171 185 192 194 194 185 186 186 182 173 173 166 149 128 122 125 114 77 69 46 78 60 7 36 1
24 78 100 108 140 150 226 269 218 187 173 161 156 149 145 140 141 146 151 152 146 139 141 149 164 176 180 185 186 184 185 177 171 181 188 162 130 111 114 129 132 134 126 289 68 352 31 31 350
153 148 129 138 229 165 174 269 256 163 162 159 154 150 144 137 136 144 150 144 133 134 144 148 153 156 169 173 163 165 166 154 162 191 184 153 156 162 147 133 127 135 43 35 120 267 308 296 309
Height
1507 1506 1506 1507 1509 1514 1514 1504 1497 1495 1495 1496 1495 1496 1499 1502 1506 1514 1510 1509 1509 1508 1507 1507 1506 1505 1504 1504 1504 1504 1504 1504 1504 1505 1505 1506 1506 1505 1504 1503 1502 1502 1503 1506 1509 1512 1514 1516 1517
1507 1507 1508 1508 1514 1524 1516 1502 1499 1497 1497 1497 1497 1499 1500 1504 1505 1508 1508 1509 1509 1508 1508 1507 1507 1506 1505 1505 1505 1505 1504 1503 1502 1504 1505 1506 1506 1506 1505 1504 1502 1502 1503 1506 1509 1512 1514 1516 1517
1507 1507 1508 1510 1516 1520 1513 1501 1498 1497 1497 1497 1500 1502 1503 1506 1507 1508 1509 1510 1510 1509 1509 1508 1508 1507 1506 1506 1505 1505 1505 1501 1498 1504 1506 1507 1507 1507 1507 1506 1505 1504 1506 1508 1510 1512 1514 1515 1516
1508 1509 1510 1514 1515 1506 1502 1498 1496 1498 1499 1499 1500 1505 1507 1508 1508 1509 1510 1510 1510 1510 1509 1509 1509 1508 1508 1507 1507 1507 1506 1505 1504 1506 1507 1508 1508 1508 1508 1508 1507 1507 1508 1510 1511 1513 1514 1515 1516
1508 1509 1513 1517 1510 1502 1497 1496 1496 1498 1500 1502 1502 1506 1509 1510 1510 1509 1510 1511 1510 1510 1510 1510 1510 1510 1509 1509 1508 1508 1508 1508 1508 1508 1509 1509 1510 1510 1510 1510 1509 1510 1510 1511 1512 1513 1514 1515 1516
1509 1510 1519 1520 1509 1500 1497 1496 1497 1499 1502 1504 1504 1507 1511 1512 1510 1510 1511 1511 1511 1511 1511 1511 1511 1511 1511 1510 1510 1510 1510 1510 1510 1510 1510 1511 1511 1511 1511 1511 1511 1511 1512 1512 1513 1514 1514 1515 1516
1510 1512 1517 1513 1509 1504 1499 1497 1497 1500 1502 1504 1505 1508 1512 1512 1512 1512 1512 1512 1512 1513 1512 1512 1512 1512 1512 1511 1511 1511 1511 1511 1511 1512 1512 1512 1512 1512 1512 1512 1513 1513 1513 1513 1514 1514 1515 1515 1516
1508 1512 1514 1511 1508 1506 1499 1498 1499 1499 1502 1505 1506 1508 1511 1513 1513 1513 1513 1513 1513 1514 1513 1513 1513 1513 1513 1513 1512 1512 1512 1513 1513 1513 1513 1513 1513 1513 1513 1514 1514 1514 1514 1514 1514 1514 1515 1515 1516
1507 1515 1516 1508 1506 1504 1499 1499 1501 1501 1502 1505 1506 1507 1509 1511 1512 1513 1513 1514 1514 1514 1514 1514 1514 1514 1514 1514 1514 1514 1514 1514 1514 1514 1514 1514 1514 1514 1514 1514 1515 1514 1514 1514 1514 1515 1515 1515 1516
1507 1515 1507 1499 1499 1500 1499 1499 1501 1503 1504 1506 1508 1509 1510 1511 1512 1512 1513 1513 1513 1514 1514 1515 1515 1514 1514 1514 1514 1515 1515 1515 1515 1515 1515 1515 1515 1515 1515 1515 1515 1515 1515 1514 1514 1515 1515 1515 1516
1504 1507 1500 1497 1497 1498 1499 1500 1501 1503 1506 1506 1507 1509 1510 1511 1512 1513 1513 1514 1514 1514 1515 1515 1515 1515 1515 1515 1515 1515 1515 1516 1516 1516 1515 1515 1515 1515 1515 1515 1515 1515 1514 1514 1514 1515 1514 1515 1515
1503 1500 1498 1497 1497 1498 1498 1499 1501 1501 1504 1505 1506 1508 1510 1511 1512 1512 1513 1514 1515 1515 1515 1515 1516 1515 1515 1516 1516 1516 1516 1516 1516 1516 1516 1516 1516 1515 1515 1515 1515 1515 1514 1514 1514 1514 1514 1515 1514
1501 1500 1497 1496 1496 1497 1498 1499 1500 1503 1504 1505 1507 1509 1510 1511 1512 1513 1514 1515 1515 1515 1515 1516 1516 1516 1516 1516 1516 1516 1516 1517 1517 1517 1516 1516 1516 1516 1515 1515 1515 1514 1514 1514 1514 1513 1513 1514 1514
1498 1497 1496 1496 1496 1498 1499 1501 1501 1505 1504 1506 1507 1509 1510 1511 1512 1513 1514 1514 1515 1515 1516 1516 1516 1516 1516 1517 1517 1517 1517 1517 1517 1517 1517 1516 1516 1516 1515 1515 1515 1514 1514 1514 1513 1513 1513 1513 1513
1498 1499 1498 1497 1496 1498 1500 1505 1503 1504 1505 1506 1508 1509 1510 1511 1512 1512 1513 1514 1514 1515 1515 1516 1516 1517 1517 1517 1517 1518 1518 1518 1517 1517 1517 1517 1516 1516 1515 1515 1514 1514 1514 1514 1513 1513 1513 1512 1512
1500 1505 1510 1500 1496 1497 1503 1514 1504 1504 1504 1506 1508 1509 1509 1510 1511 1512 1513 1513 1514 1514 1515 1515 1516 1517 1517 1517 1517 1518 1518 1518 1518 1517 1517 1517 1516 1516 1516 1515 1514 1514 1514 1513 1513 1512 1512 1512 1511
1510 1516 1513 1504 1495 1496 1501 1509 1502 1503 1503 1505 1507 1508 1509 1510 1511 1512 1512 1513 1513 1514 1514 1515 1516 1517 1517 1517 1518 1518 1518 1518 1518 1518 1517 1517 1517 1516 1516 1515 1515 1514 1514 1513 1513 1512 1512 1511 1511
1518 1515 1512 1508 1498 1497 1501 1505 1502 1502 1503 1504 1506 1508 1509 1509 1510 1511 1512 1513 1513 1514 1514 1515 1516 1517 1517 1517 1518 1518 1518 1518 1518 1518 1518 1517 1517 1517 1516 1515 1515 1514 1513 1513 1512 1512 1511 1511 1510
1504 1508 1510 1504 1495 1499 1503 1504 1501 1501 1502 1504 1505 1507 1508 1509 1510 1511 1512 1513 1513 1514 1514 1514 1515 1516 1517 1517 1517 1518 1518 1518 1518 1518 1518 1517 1517 1517 1516 1515 1514 1514 1513 1513 1512 1511 1511 1510 1510
1501 1508 1509 1501 1495 1498 1504 1504 1500 1499 1500 1501 1503 1504 1506 1508 1509 1510 1510 1511 1512 1513 1514 1514 1515 1516 1516 1517 1517 1518 1518 1518 1518 1518 1518 1517 1517 1516 1516 1515 1514 1514 1513 1513 1512 1511 1510 1510 1510
1500 1505 1505 1504 1498 1498 1505 1512 1506 1502 1501 1502 1502 1503 1504 1505 1506 1508 1510 1511 1512 1513 1513 1514 1515 1516 1516 1517 1518 1518 1518 1518 1518 1517 1517 1517 1517 1516 1515 1515 1514 1514 1513 1512 1512 1511 1510 1510 1510
1504 1492 1493 1497 1508 1517 1512 1530 1514 1505 1503 1502 1502 1503 1503 1505 1506 1507 1508 1510 1511 1512 1513 1514 1515 1515 1516 1516 1517 1517 1517 1517 1517 1517 1517 1517 1516 1516 1515 1515 1514 1513 1513 1512 1511 1511 1510 1509 1509
1492 1485 1489 1496 1508 1517 1515 1527 1521 1507 1509 1504 1501 1502 1502 1503 1505 1506 1507 1508 1510 1511 1512 1513 1514 1515 1516 1516 1517 1517 1517 1517 1517 1517 1517 1516 1516 1515 1515 1514 1513 1513 1512 1511 1511 1510 1509 1509 1508
1484 1489 1496 1504 1515 1531 1520 1526 1525 1511 1505 1501 1500 1500 1501 1503 1504 1506 1507 1508 1509 1511 1512 1513 1514 1514 1515 1515 1516 1516 1516 1516 1516 1517 1516 1516 1515 1515 1514 1514 1513 1512 1511 1510 1510 1509 1508 1508 1508
1487 1509 1529 1533 1540 1536 1516 1521 1519 1500 1496 1496 1497 1498 1500 1503 1504 1506 1507 1508 1509 1510 1511 1512 1513 1514 1514 1515 1514 1514 1515 1515 1516 1516 1516 1515 1515 1514 1514 1513 1512 1511 1511 1510 1509 1508 1508 1507 1507
1491 1504 1531 1543 1544 1535 1520 1524 1511 1496 1495 1495 1496 1498 1500 1502 1504 1505 1507 1508 1509 1510 1511 1512 1512 1513 1514 1514 1514 1514 1514 1514 1514 1514 1514 1514 1513 1513 1512 1512 1511 1511 1510 1509 1508 1507 1507 1506 1505
1492 1501 1503 1523 1529 1537 1530 1519 1506 1496 1496 1497 1498 1499 1501 1502 1504 1505 1506 1508 1509 1509 1510 1511 1512 1513 1513 1513 1513 1513 1513 1513 1513 1513 1513 1512 1512 1512 1511 1511 1510 1510 1509 1508 1507 1506 1505 1505 1504
1484 1492 1508 1522 1537 1544 1533 1525 1519 1505 1502 1499 1498 1499 1501 1503 1504 1505 1506 1507 1508 1509 1510 1511 1511 1512 1512 1512 1512 1512 1512 1512 1512 1512 1511 1511 1510 1510 1510 1509 1509 1508 1507 1507 1506 1505 1504 1503 1503
1489 1495 1505 1519 1525 1540 1544 1529 1497 1497 1497 1498 1498 1499 1500 1501 1503 1504 1506 1507 1507 1508 1509 1510 1510 1511 1511 1511 1511 1510 1510 1510 1510 1510 1510 1509 1509 1509 1508 1508 1507 1506 1506 1505 1504 1503 1503 1502 1501
1483 1490 1502 1520 1526 1529 1535 1526 1491 1492 1493 1495 1497 1498 1499 1501 1503 1504 1505 1506 1507 1507 1508 1509 1509 1509 1509 1510 1509 1509 1509 1509 1508 1508 1508 1508 1508 1507 1506 1505 1505 1504 1504 1503 1502 1501 1501 1500 1499